Tracking 17855 objects as of 25-September-2016
HD Live streaming from Space Station
objects crossing your sky now

INTELSAT 705

Track INTELSAT 705 now!
INTELSAT 705 is classified as:


NORAD ID: 23528
Int'l Code: 1995-013A
Perigee: 36,101.4 km
Apogee: 36,221.2 km
Inclination: 5.4 °
Period: 1,454.9 minutes
Semi major axis: 42532 km
RCS: 12.1482 m2 (large)
Launch date: March 22, 1995
Source: International Telecommunications Satellite Organization (ITSO)
Launch site: AIR FORCE EASTERN TEST RANGE (AFETR)

42 C-band, 24 Ku-band; broadcasting, business services, direct-to-home TV broadcasting, telecommunications, VSATnetworks; Atlantic Ocean region.
Your satellite tracking list
Your tracking list is empty





NASA's NSSDC Master Catalog

Two Line Element Set (TLE):
1 23528U 95013A   16268.79333667 -.00000104 +00000-0 +00000-0 0  9991
2 23528 005.4404 059.3992 0014081 030.5532 219.3622 00.98974763078371
Source of the keplerian elements: AFSPC

N2YO: 518